IRIDIUM 52 [-] (25169 NORAD) Tracking and Keplerian Element Data

This shows tracking and keplerian element data for the satellite.

Feedback or suggestion? Click here.




ElementValue
Catalog25169
NameIRIDIUM 52 [-]
Epoch Orbit8462
Epoch Day309.7716938
Epoch Year2018
RAAN137.3081
Inclination86.5281
Eccentricity0.0051043
Argument of Perigee106.6669
Mean Anonmoly254.0636
Mean Motion16.4322557
Decay Rate0.30688811
L11 25169U 98010A 18309.77169380 .30688811 -17469-5 40668-3 0 9998
L22 25169 86.5281 137.3081 0051043 106.6669 254.0636 16.43225570 84626

Live tracking and technical data element details for IRIDIUM 52 [-] (NORAD 25169). IRIDIUM 52 [-] can be tracked NOW for your location showing map with azimuth and elevation plus other details from your city location.

Track the satellite on the map from your city or location and see movement details for azimuth, elevation, latitude, longitude, range, height, and movement on the map or in text.







IsCatalogInMostPopularTable: catalog: 25169, numindb: 44
Update: records affected: 1



GetName: 25169 IRIDIUM 52 [-]

Hit Count: updated at: Wed, 21 Nov 2018 06:53:32 GMT